This is the latest recevied weather packets stored in our database for station/object KK4MOR. If no packets are shown the sender has not sent any weather packets the latest 1 day(s).
| Time | Temp. | Humidity | Pressure | Rain* | Wind** | Luminosity | Snow |
|---|---|---|---|---|---|---|---|
| 1778089605 | 16.11° C | 96% | 1009 hPa | 0.25 mm | - | - | - |
| 1778085940 | 16.11° C | 92% | 1010.2 hPa | 0 mm | - | - | - |
| 1778083234 | 20° C | 92% | 1009.4 hPa | 0 mm | - | - | - |
| 1778080531 | 18.89° C | 96% | 1008.8 hPa | 0 mm | - | - | - |
| 1778077838 | 17.78° C | 97% | 1007.9 hPa | 0 mm | - | - | - |
| 1778073329 | 17.22° C | 96% | 1009.1 hPa | 3.56 mm | - | - | - |
| 1778070625 | 17.22° C | 96% | 1008.1 hPa | 3.56 mm | - | - | - |
| 1778068820 | 17.78° C | 96% | 1008.1 hPa | 10.92 mm | - | - | - |
| 1778067919 | 17.78° C | 96% | 1008.1 hPa | 12.19 mm | - | - | - |
| 1778065216 | 17.78° C | 94% | 1008.1 hPa | 7.11 mm | - | - | - |
| 1778060702 | 18.89° C | 87% | 1006.4 hPa | 0.51 mm | - | - | - |
| 1778059861 | 19.44° C | 83% | 1006.9 hPa | 0 mm | - | - | - |
| 1778058956 | 20° C | 80% | 1006.8 hPa | 0 mm | - | - | - |
| 1778057153 | 20.56° C | 76% | 1005.6 hPa | 0 mm | - | - | - |
| 1778056252 | 20.56° C | 75% | 1005.7 hPa | 0 mm | - | - | - |
| 1778054454 | 21.11° C | 72% | 1006 hPa | 0 mm | - | - | - |
| 1778053549 | 20.56° C | 72% | 1005.6 hPa | 0 mm | - | - | - |
| 1778052648 | 20.56° C | 71% | 1005.6 hPa | 0 mm | - | - | - |
| 1778051746 | 20.56° C | 70% | 1005.5 hPa | 0 mm | - | - | - |
| 1778050844 | 20.56° C | 68% | 1005.7 hPa | 0 mm | - | - | - |
| 1778049943 | 21.11° C | 68% | 1005.9 hPa | 0 mm | - | - | - |
| 1778047237 | 20.56° C | 67% | 1006.3 hPa | 0 mm | - | - | - |
| 1778043632 | 20.56° C | 68% | 1007.1 hPa | 0 mm | - | - | - |
| 1778042738 | 20° C | 69% | 1007.1 hPa | 0 mm | - | - | - |
| 1778041827 | 20° C | 68% | 1007.2 hPa | 0 mm | - | - | - |
* Rain latest hour (hover to see other rain measurements)
** Current wind speed in m/s (hover to see current wind gust speed)